Satellite-Ground Cal/Val Region Overpasses Predictions

Prediction of Satellite NPP Overpassing Cal/Val Region: PacNW

Region Location: (Latitude: 10.00, Longitude: 139.50) to (Latitude: 22.70, Longitude: 165.60).

Table of predicted overpasses for the next 14.0 days since TLE Epoch: 3/5/2022
Interval Starting Time Starting Location Ending Time Ending Location
1 03/05/2022 03:42:58 ( 10.02, 144.03) 03/05/2022 03:46:33 ( 22.65, 141.03)
2 03/05/2022 14:34:34 ( 18.43, 165.60) 03/05/2022 14:36:57 ( 10.03, 163.63)
3 03/05/2022 16:14:52 ( 22.64, 141.26) 03/05/2022 16:16:55 ( 15.43, 139.51)
4 03/06/2022 03:23:57 ( 10.04, 148.79) 03/06/2022 03:27:32 ( 22.66, 145.79)
5 03/06/2022 15:55:49 ( 22.69, 146.02) 03/06/2022 15:59:25 ( 10.01, 143.01)
6 03/07/2022 03:04:55 ( 10.06, 153.54) 03/07/2022 03:08:30 ( 22.68, 150.54)
7 03/07/2022 15:36:48 ( 22.67, 150.78) 03/07/2022 15:40:23 ( 10.05, 147.77)
8 03/08/2022 02:45:53 ( 10.01, 158.31) 03/08/2022 02:49:29 ( 22.70, 155.29)
9 03/08/2022 15:17:47 ( 22.65, 155.53) 03/08/2022 15:21:22 ( 10.03, 152.53)
10 03/09/2022 02:26:51 ( 10.03, 163.06) 03/09/2022 02:30:26 ( 22.66, 160.06)
11 03/09/2022 14:58:44 ( 22.69, 160.29) 03/09/2022 15:02:20 ( 10.01, 157.28)
12 03/10/2022 02:10:31 ( 19.51, 165.59) 03/10/2022 02:11:25 ( 22.67, 164.81)
13 03/10/2022 03:49:20 ( 10.06, 142.43) 03/10/2022 03:52:50 ( 22.39, 139.51)
14 03/10/2022 14:39:43 ( 22.67, 165.05) 03/10/2022 14:43:18 ( 10.05, 162.05)
15 03/10/2022 16:21:13 ( 22.67, 139.67) 03/10/2022 16:21:24 ( 22.02, 139.51)
16 03/11/2022 03:30:17 ( 10.02, 147.20) 03/11/2022 03:33:53 ( 22.70, 144.18)
17 03/11/2022 16:02:11 ( 22.65, 144.42) 03/11/2022 16:05:46 ( 10.03, 141.42)
18 03/12/2022 03:11:16 ( 10.04, 151.95) 03/12/2022 03:14:51 ( 22.66, 148.95)
19 03/12/2022 15:43:09 ( 22.69, 149.19) 03/12/2022 15:46:45 ( 10.01, 146.17)
20 03/13/2022 02:52:13 ( 10.00, 156.72) 03/13/2022 02:55:49 ( 22.68, 153.70)
21 03/13/2022 15:24:07 ( 22.67, 153.94) 03/13/2022 15:27:42 ( 10.05, 150.94)
22 03/14/2022 02:33:12 ( 10.02, 161.47) 03/14/2022 02:36:47 ( 22.64, 158.47)
23 03/14/2022 15:05:06 ( 22.65, 158.69) 03/14/2022 15:08:41 ( 10.03, 155.69)
24 03/15/2022 02:14:58 ( 12.81, 165.59) 03/15/2022 02:17:46 ( 22.67, 163.22)
25 03/15/2022 03:55:40 ( 10.05, 140.85) 03/15/2022 03:57:18 ( 15.81, 139.51)
26 03/15/2022 14:46:03 ( 22.68, 163.46) 03/15/2022 14:49:39 ( 10.00, 160.44)
27 03/16/2022 03:36:38 ( 10.01, 145.61) 03/16/2022 03:40:14 ( 22.70, 142.60)
28 03/16/2022 14:30:08 ( 11.74, 165.60) 03/16/2022 14:30:37 ( 10.04, 165.21)
29 03/16/2022 16:08:32 ( 22.65, 142.83) 03/16/2022 16:12:07 ( 10.03, 139.83)
30 03/17/2022 03:17:37 ( 10.04, 150.36) 03/17/2022 03:21:12 ( 22.66, 147.36)
31 03/17/2022 15:49:29 ( 22.69, 147.60) 03/17/2022 15:53:05 ( 10.01, 144.59)
32 03/18/2022 02:58:34 ( 10.00, 155.13) 03/18/2022 03:02:10 ( 22.68, 152.11)
